Wind_Speed
2 3 3 5 6 6 7 9 8 7 4 7 8 11 13 14 17 18 19 21 22 24 24 26 28 29 31 32 33 33 38 40 41 41 45 48 50 51 53 54 55 56 56 56
4 3 4 5 6 8 7 9 9 10 7 7 13 14 14 17 19 20 22 23 23 24 27 27 27 28 30 31 32 35 40 43 45 47 52 55 55 57 57 57 56 58 60 62
7 7 7 7 8 11 10 10 11 11 14 12 15 17 18 17 18 18 20 23 25 27 27 28 29 29 31 34 36 39 42 46 49 52 56 55 56 58 59 59 56 56 58 59
9 10 11 12 12 12 14 16 15 16 15 14 17 21 20 20 21 25 27 30 30 31 30 32 30 32 34 34 36 41 44 46 50 54 56 56 56 57 56 55 56 57 58 58
13 14 15 16 16 14 16 18 19 18 15 15 15 17 20 22 25 29 33 34 34 35 34 36 38 38 40 41 44 48 50 51 53 53 56 57 56 54 55 54 56 58 60 62
16 16 19 21 20 17 18 19 20 18 16 17 17 19 20 26 33 37 37 38 39 39 41 42 44 45 46 46 48 50 50 50 52 54 55 55 56 58 59 62 63 64 65 67
19 19 21 22 23 22 21 21 21 19 18 18 19 23 26 32 37 38 38 39 40 42 43 45 47 49 50 50 50 52 54 57 57 57 63 66 64 63 67 69 72 73 74 75
19 19 21 22 22 22 22 20 21 22 22 22 25 28 35 35 37 39 41 42 43 45 47 49 50 51 51 52 54 56 57 57 58 61 67 66 65 65 69 72 75 77 78 79
14 15 17 18 19 20 19 20 20 23 26 27 29 27 35 34 39 40 40 41 42 44 45 47 47 47 49 51 53 56 58 59 61 64 69 68 69 70 72 79 80 80 81 82
13 14 13 12 15 17 19 21 24 27 31 33 33 24 25 37 39 38 35 37 38 39 40 42 43 45 48 53 54 56 58 60 62 65 71 74 74 77 81 84 83 81 82 85
16 18 17 17 20 22 23 25 28 30 31 34 37 28 29 31 32 33 34 35 37 41 42 41 43 47 52 52 55 60 63 64 67 70 71 71 73 77 80 84 84 84 85 85
20 21 23 22 23 24 25 27 30 33 35 33 35 32 34 37 33 33 35 40 43 42 43 46 50 53 58 60 61 63 65 66 69 71 73 78 80 83 87 88 89 92 89 88
20 21 22 22 24 25 26 27 30 34 36 35 38 34 34 37 39 40 44 46 46 46 51 55 60 62 63 65 65 67 68 69 72 76 78 79 81 85 88 90 91 90 88 84
24 25 27 28 26 26 26 29 32 37 40 42 35 39 33 38 39 43 45 47 51 54 59 62 62 63 66 66 67 69 70 73 75 78 81 84 89 92 89 90 92 88 81 74
28 29 32 33 32 30 28 30 34 40 39 41 38 38 41 42 46 48 49 52 56 60 60 63 66 67 67 68 70 72 73 75 79 82 85 90 95 93 92 89 83 76 65 50
35 34 33 32 35 35 28 31 35 34 34 37 40 42 42 44 47 49 52 57 58 62 64 66 67 67 68 70 71 72 73 78 82 86 87 87 89 88 83 74 67 48 40 41
41 40 38 30 35 32 25 28 34 35 34 37 41 43 44 45 50 51 54 57 61 65 66 67 69 71 72 73 74 73 77 83 88 87 86 90 89 81 70 62 52 43 42 43
42 44 45 40 34 32 21 30 37 38 37 39 45 45 49 51 54 56 59 61 65 67 69 72 73 74 75 75 77 79 82 88 88 87 87 86 75 67 59 51 48 47 45 44
46 46 44 43 42 42 23 30 37 42 41 45 47 51 55 58 59 62 61 66 70 75 77 78 80 79 78 79 82 83 87 88 90 90 82 71 64 56 51 49 48 47 46 45
47 47 43 41 43 44 32 40 43 47 50 53 55 56 59 62 65 66 70 75 78 81 84 83 82 80 81 84 83 85 83 87 91 81 69 60 52 49 50 48 48 47 48 50
48 42 37 38 40 40 36 42 47 50 55 56 60 63 65 68 69 73 73 75 81 83 82 82 80 81 85 88 87 87 87 86 78 67 58 51 49 50 49 49 51 53 54 55
40 38 35 37 37 38 43 47 49 53 56 58 63 66 68 68 72 72 72 77 86 84 82 72 74 84 89 87 85 87 84 74 64 55 50 51 51 50 52 55 57 58 58 58
39 35 41 38 41 41 48 52 55 59 62 65 65 72 66 67 73 75 72 81 81 81 78 78 79 80 84 85 88 84 73 62 53 51 52 49 51 54 57 58 59 57 54 52
34 34 39 45 42 48 53 56 60 61 65 68 71 67 71 72 78 77 78 87 82 83 82 79 78 79 85 85 79 71 61 51 48 49 48 50 53 56 58 57 53 51 49 46
37 42 45 50 53 58 57 63 65 67 69 72 65 73 77 72 66 74 84 82 82 79 79 79 76 76 79 75 67 59 50 46 47 47 48 51 54 55 53 51 49 47 44 40
42 46 52 56 59 62 63 65 67 72 76 72 70 74 72 70 72 78 79 79 75 75 76 79 74 77 75 65 59 48 45 45 45 45 48 51 53 52 49 46 42 42 41 40
Wind_Direction
306 21 345 331 335 324 298 283 278 276 269 288 292 283 290 293 297 302 306 301 297 300 308 315 311 307 304 302 304 302 300 298 299 299 301 305 307 308 310 308 306 304 303 299
287 313 308 305 314 309 310 297 302 304 308 296 281 287 296 304 307 310 307 300 297 301 304 304 303 297 294 298 299 296 295 296 300 306 308 310 311 310 307 304 304 304 303 303
283 280 284 287 291 294 295 289 295 301 308 308 297 296 305 308 301 299 296 288 290 296 299 301 303 303 307 303 299 296 293 295 298 300 305 306 304 303 303 303 302 300 298 297
279 279 282 284 285 294 301 298 296 293 290 288 288 296 303 302 300 298 292 294 299 300 303 311 311 306 302 298 295 294 294 296 298 299 300 299 300 300 299 300 300 299 298 296
275 277 281 285 288 296 300 298 297 295 289 286 294 298 299 309 305 297 296 300 305 307 313 315 311 310 309 306 305 304 303 301 303 303 299 298 298 298 299 298 296 296 296 295
282 283 283 280 282 286 291 296 302 294 291 293 300 302 310 311 303 301 303 306 311 316 314 313 312 310 308 304 303 301 301 301 300 301 301 301 300 301 301 299 297 296 295 296
284 282 281 285 287 285 288 292 295 286 284 292 298 300 302 306 302 301 306 309 312 311 311 309 307 306 306 306 307 309 310 308 307 306 308 308 304 300 298 301 302 301 299 298
283 279 279 283 283 287 289 289 288 288 287 288 294 301 304 307 302 303 307 309 310 310 307 305 305 306 309 310 310 310 309 307 304 302 304 302 301 300 300 301 301 301 300 299
292 289 285 284 285 285 282 283 283 279 281 285 288 300 301 296 295 303 305 304 301 299 302 304 306 307 306 305 305 304 302 300 298 296 296 297 299 300 300 303 303 301 300 299
305 302 298 288 282 281 286 288 289 288 293 292 296 304 293 294 301 300 300 300 301 301 299 300 298 298 300 302 300 298 299 298 297 295 297 297 295 297 298 301 300 299 297 299
305 306 304 303 299 297 296 294 292 294 294 297 301 311 300 297 295 297 295 297 298 299 299 300 299 299 299 299 299 300 300 299 298 295 295 298 300 299 300 300 299 302 301 300
301 301 300 301 298 296 296 297 297 298 299 302 306 320 309 304 305 303 307 306 307 306 304 305 305 302 302 303 302 300 298 297 298 301 301 301 300 300 301 302 304 305 305 302
305 304 301 300 299 298 298 297 301 299 302 308 308 315 310 309 311 312 311 308 307 304 301 303 306 307 306 305 304 302 302 303 303 303 303 303 304 304 303 301 300 304 307 308
306 306 302 300 298 295 299 302 300 299 302 301 309 306 305 305 305 306 305 303 303 306 307 306 306 306 306 306 305 303 303 303 304 304 305 306 306 306 304 305 307 308 307 306
306 302 297 298 297 295 298 296 291 293 296 300 304 305 308 310 308 307 307 306 304 305 306 307 308 307 307 307 307 306 305 306 309 310 306 302 304 309 310 310 309 309 309 309
315 306 303 295 292 293 296 292 296 291 294 297 303 308 306 308 308 305 303 303 309 309 308 307 307 308 307 306 306 306 309 312 311 309 308 308 311 312 312 313 311 310 306 296
313 309 307 301 288 292 297 296 290 292 291 296 301 305 307 308 305 305 306 308 308 307 308 309 309 310 311 310 310 311 312 311 311 311 311 314 316 316 314 311 312 310 307 302
315 310 306 301 293 290 298 289 289 288 290 297 300 305 309 310 309 311 311 311 309 310 310 310 311 313 313 312 312 313 313 312 314 317 316 315 316 313 312 312 313 311 307 304
313 312 303 300 293 292 305 285 286 290 293 299 306 312 315 314 314 315 311 309 311 313 313 314 314 313 312 313 314 311 308 315 318 319 318 317 313 312 312 312 311 310 308 306
309 307 301 301 294 293 314 299 302 304 309 310 314 314 315 315 313 312 311 312 314 314 314 314 312 312 314 315 313 311 315 316 318 320 317 314 313 311 311 311 312 311 309 307
307 302 302 297 295 300 304 302 304 309 309 313 312 312 313 313 314 313 311 310 312 312 311 311 313 311 312 312 314 319 319 319 320 317 316 317 315 315 315 314 313 311 309 307
301 301 300 296 297 304 300 301 306 308 310 312 311 311 311 313 311 312 305 305 310 310 309 309 303 305 308 312 315 321 321 321 318 318 320 318 318 319 317 314 312 310 308 306
299 299 296 302 301 304 305 307 308 308 310 312 311 310 311 306 304 307 303 305 307 308 310 308 308 311 311 313 319 321 320 318 319 321 321 322 321 318 315 314 312 311 311 311
306 306 303 300 304 303 304 306 305 309 310 309 309 307 304 302 303 295 300 308 310 309 309 310 313 315 315 319 321 320 319 321 320 321 322 322 320 319 318 318 318 317 317 317
313 309 303 305 305 306 305 303 306 307 308 310 302 305 305 309 296 291 301 305 304 309 311 310 314 320 320 321 320 319 319 319 321 323 324 324 324 324 323 322 322 322 323 323
307 303 301 304 306 306 305 302 302 303 306 305 301 303 306 301 296 298 302 304 306 308 309 311 320 322 321 320 319 319 320 320 323 324 325 328 329 329 327 326 328 329 328 327
Height
5821 5821 5821 5821 5822 5822 5822 5821 5821 5821 5821 5820 5819 5817 5817 5815 5813 5811 5809 5807 5805 5804 5802 5800 5798 5796 5792 5788 5784 5780 5775 5770 5766 5761 5757 5752 5749 5744 5739 5733 5728 5723 5718 5714
5821 5820 5821 5821 5821 5820 5820 5819 5819 5818 5818 5818 5815 5814 5813 5812 5811 5809 5807 5804 5802 5801 5800 5797 5793 5789 5786 5782 5777 5773 5767 5761 5756 5751 5745 5740 5736 5730 5727 5722 5717 5710 5704 5699
5819 5819 5819 5820 5819 5818 5818 5817 5816 5816 5814 5814 5811 5811 5810 5809 5808 5806 5803 5800 5800 5798 5795 5791 5786 5783 5779 5774 5770 5765 5760 5754 5748 5742 5737 5732 5726 5721 5716 5710 5705 5700 5694 5688
5817 5817 5817 5817 5816 5816 5814 5813 5813 5812 5812 5811 5809 5807 5805 5804 5802 5800 5797 5795 5794 5791 5788 5784 5780 5776 5771 5767 5762 5757 5751 5746 5741 5735 5728 5722 5717 5711 5705 5698 5691 5684 5678 5673
5815 5814 5813 5813 5813 5813 5811 5809 5809 5808 5808 5806 5805 5804 5800 5799 5796 5792 5790 5788 5786 5783 5779 5775 5771 5767 5762 5757 5752 5746 5740 5736 5731 5725 5718 5713 5706 5698 5690 5683 5678 5672 5665 5658
5811 5810 5809 5808 5809 5810 5809 5807 5805 5803 5803 5802 5800 5799 5798 5794 5788 5783 5781 5780 5777 5773 5769 5765 5759 5754 5751 5746 5741 5736 5731 5725 5718 5710 5703 5696 5688 5681 5675 5668 5662 5656 5649 5642
5807 5806 5805 5804 5804 5804 5804 5803 5801 5800 5798 5798 5796 5794 5792 5788 5782 5778 5777 5774 5770 5766 5760 5754 5750 5744 5739 5733 5727 5720 5714 5708 5700 5693 5685 5678 5671 5665 5658 5652 5645 5637 5630 5623
5802 5802 5801 5801 5800 5799 5798 5798 5796 5793 5794 5794 5791 5790 5784 5780 5774 5771 5768 5766 5761 5756 5749 5744 5739 5734 5727 5722 5716 5710 5704 5696 5689 5682 5675 5667 5660 5651 5643 5635 5627 5618 5608 5601
5798 5797 5796 5796 5795 5794 5793 5792 5791 5788 5788 5787 5787 5788 5779 5774 5770 5767 5764 5759 5754 5748 5742 5737 5732 5726 5720 5713 5707 5700 5693 5686 5678 5670 5662 5654 5644 5635 5626 5618 5607 5598 5589 5580
5796 5794 5794 5793 5791 5790 5789 5787 5786 5784 5781 5779 5779 5782 5775 5766 5763 5760 5756 5750 5745 5740 5735 5730 5724 5717 5710 5704 5697 5689 5681 5673 5664 5655 5646 5638 5628 5618 5607 5598 5589 5578 5568 5559
5794 5793 5793 5790 5788 5785 5784 5782 5779 5778 5776 5771 5768 5773 5765 5762 5758 5753 5748 5743 5738 5731 5726 5720 5713 5706 5698 5690 5682 5673 5665 5657 5648 5640 5630 5619 5610 5599 5589 5578 5567 5557 5547 5538
5790 5789 5787 5786 5784 5781 5778 5775 5772 5768 5767 5765 5760 5762 5754 5747 5745 5742 5737 5731 5725 5719 5712 5706 5699 5693 5686 5678 5669 5660 5651 5641 5631 5621 5612 5601 5589 5579 5569 5558 5546 5536 5526 5516
5786 5784 5782 5781 5780 5776 5774 5770 5765 5761 5758 5755 5751 5752 5744 5737 5733 5729 5725 5720 5714 5708 5701 5695 5688 5680 5671 5662 5653 5643 5633 5624 5614 5603 5592 5581 5570 5558 5546 5535 5525 5514 5503 5492
5781 5778 5774 5773 5773 5771 5767 5762 5757 5752 5748 5743 5746 5737 5738 5733 5729 5724 5717 5709 5702 5696 5689 5682 5674 5665 5656 5647 5637 5627 5617 5606 5596 5585 5573 5561 5549 5537 5524 5513 5502 5490 5480 5469
5776 5773 5769 5766 5763 5762 5761 5758 5752 5745 5742 5736 5735 5732 5727 5722 5716 5711 5705 5698 5693 5687 5678 5669 5660 5650 5641 5632 5621 5610 5599 5589 5578 5566 5553 5540 5528 5515 5504 5491 5479 5467 5457 5450
5768 5765 5762 5761 5753 5751 5754 5749 5743 5740 5737 5731 5726 5724 5719 5715 5708 5701 5695 5688 5681 5671 5663 5654 5644 5635 5625 5615 5606 5595 5583 5571 5559 5545 5532 5520 5507 5494 5480 5468 5458 5450 5444 5439
5759 5754 5751 5752 5745 5745 5746 5741 5734 5731 5729 5724 5719 5715 5710 5706 5698 5691 5682 5673 5664 5656 5649 5640 5630 5619 5608 5596 5585 5575 5564 5551 5539 5525 5511 5497 5483 5471 5460 5450 5442 5436 5431 5426
5751 5745 5739 5737 5737 5736 5741 5732 5724 5721 5719 5716 5709 5705 5699 5691 5682 5674 5666 5658 5650 5642 5632 5621 5611 5601 5590 5579 5568 5557 5545 5534 5520 5507 5493 5479 5466 5455 5444 5436 5430 5423 5418 5412
5744 5738 5731 5729 5724 5721 5732 5723 5717 5711 5710 5705 5699 5692 5683 5675 5669 5661 5652 5644 5634 5622 5612 5603 5591 5581 5573 5562 5552 5540 5528 5515 5502 5488 5474 5461 5450 5441 5433 5425 5418 5412 5406 5400
5737 5731 5725 5721 5715 5709 5718 5706 5701 5696 5694 5688 5684 5676 5669 5662 5655 5647 5636 5624 5616 5605 5595 5586 5576 5564 5553 5544 5534 5523 5509 5496 5483 5469 5457 5447 5438 5430 5422 5414 5407 5400 5393 5387
5727 5721 5718 5711 5708 5707 5705 5698 5693 5689 5684 5678 5670 5663 5656 5647 5637 5628 5620 5611 5600 5591 5582 5570 5559 5547 5536 5526 5514 5502 5490 5477 5464 5453 5442 5434 5427 5419 5411 5402 5394 5387 5380 5372
5719 5713 5710 5705 5702 5702 5694 5689 5688 5681 5674 5667 5660 5651 5643 5633 5623 5614 5604 5595 5586 5576 5566 5556 5546 5536 5524 5510 5497 5485 5472 5459 5450 5441 5432 5423 5415 5407 5398 5390 5382 5373 5365 5356
5709 5708 5700 5699 5694 5691 5684 5681 5675 5667 5660 5652 5644 5636 5628 5620 5611 5602 5593 5582 5572 5559 5550 5540 5529 5518 5506 5494 5482 5470 5458 5448 5438 5430 5421 5413 5404 5396 5387 5378 5368 5358 5348 5339
5701 5699 5692 5685 5688 5682 5676 5670 5661 5654 5645 5637 5630 5623 5614 5607 5595 5586 5574 5563 5552 5543 5533 5523 5512 5502 5491 5479 5467 5456 5446 5437 5430 5421 5413 5404 5396 5385 5374 5363 5352 5343 5335 5327
5692 5685 5680 5675 5673 5667 5664 5655 5648 5639 5632 5623 5615 5606 5598 5588 5580 5570 5561 5548 5538 5528 5518 5508 5497 5486 5478 5467 5455 5445 5436 5428 5421 5412 5404 5396 5385 5374 5363 5351 5341 5333 5324 5317
5679 5672 5666 5662 5659 5651 5647 5639 5633 5624 5617 5611 5603 5591 5581 5572 5565 5555 5547 5534 5522 5514 5504 5495 5484 5472 5464 5454 5444 5435 5427 5420 5412 5404 5396 5386 5375 5363 5353 5343 5335 5323 5316 5309